Location: Asis
(14.1331°N, 120.9056°E)
Time: 09:19:47
(UTC+00:00)

CARTOSAT-1 - Visible Passes

Search period start: 10 April 2026 00:00
Search period end: 20 April 2026 00:00
Orbit: 595 x 596 km, 97.5° (Epoch: 10 April)

Date Brightness Start Highest point End Pass type
(mag) Time Alt. Az. Time Alt. Az. Time Alt. Az.
10 Apr 6.5 11:55:12 10° SW 11:57:16 13° W 11:59:21 10° WNW visible
11 Apr 4.2 10:27:36 10° SE 10:31:22 33° ENE 10:35:08 10° NNE visible
12 Apr 3.8 10:36:55 10° SSE 10:40:56 46° ENE 10:44:56 10° N visible
13 Apr 3.4 10:46:21 10° SSE 10:50:30 65° ENE 10:54:39 10° N visible
14 Apr 3.4 10:55:53 10° SSE 11:00:04 89° WSW 11:04:16 10° NNW visible
15 Apr 3.9 11:05:30 10° S 11:09:39 64° W 11:13:47 10° NNW visible
16 Apr 4.6 11:15:13 10° S 11:19:13 45° W 11:23:13 10° NNW visible
17 Apr 5.2 11:25:02 10° SSW 11:28:48 32° W 11:32:33 10° NW visible
18 Apr 5.8 11:35:00 10° SSW 11:38:22 24° W 11:41:46 10° NW visible
19 Apr 6.2 11:45:09 10° SW 11:47:57 18° W 11:50:47 10° NW visible
